Regional Weather Roundup
Issued by NWS

Home | Current Version | Previous Version | Graphics & Text | Print | Product List | Glossary On
Versions: 1 2 3 4 5 6 7 8 9 10 11 12 13 14 15 16 17 18 19 20 21 22 23 24 25 26 27 28 29 30 31 32 33 34 35 36 37 38 39 40 41 42 43 44 45 46 47 48 49 50
370
ASUS45 KBOU 262007
RWRCO

WEATHER ROUNDUP FOR COLORADO
NATIONAL WEATHER SERVICE DENVER/BOULDER CO
200 PM MDT WED JUL 26 2017

NOTE: "FAIR" INDICATES FEW OR NO CLOUDS BELOW 12000 FEET WITH NO
SIGNIFICANT WEATHER AND/OR OBSTRUCTIONS TO VISIBILITY.

COZ001>005-013-030-031-262100-
...NORTHWEST COLORADO...

CITY           SKY/WX    TMP DP  RH WIND       PRES   REMARKS
CRAIG          FAIR      80  55  42 NW6       30.28F
HAYDEN         PTSUNNY   73  55  53 N10       30.31F
MEEKER         FAIR      78  57  48 VRB6      30.29F
RABBIT EARS PA FAIR      59  54  82 W8        30.60F
STEAMBOAT SPGS PTSUNNY   74  57  54 SE7       30.32F
WALDEN         CLOUDY    66  52  59 N8        30.43S
$$

COZ006>008-011-262100-
...WEST CENTRAL VALLEYS...

CITY           SKY/WX    TMP DP  RH WIND       PRES   REMARKS
GRAND JUNCTION FAIR      84  61  45 VRB6      30.20F
MONTROSE       FAIR      81  57  43 VRB3      30.27F
EAGLE          PTSUNNY   73  57  56 VRB7      30.35F
RIFLE          FAIR      77  63  61 VRB3      30.26F
DELTA          FAIR      87  55  33 S8        30.22F
NUCLA          FAIR      82  52  34 W9        30.31F
$$

COZ017>023-064>068-262100-
...SOUTHWEST COLORADO...

CITY           SKY/WX    TMP DP  RH WIND       PRES   REMARKS
DURANGO        FAIR      82  52  35 SW10G18   30.33F
CORTEZ         FAIR      81  56  42 VRB5      30.28F
PAGOSA SPRINGS PTSUNNY   77  46  32 SW9G17    30.40F
TELLURIDE      FAIR      69  54  59 W10G17    30.53S
WOLF CREEK PAS NOT AVBL
$$

COZ009-010-012-014-032>034-037-058>063-262100-
...CENTRAL COLORADO...

CITY           SKY/WX    TMP DP  RH WIND       PRES   REMARKS
ASPEN          FAIR      74  53  48 VRB3      30.39F
BUENA VISTA    CLOUDY    78  43  28 SW10G16   30.38
COPPER MTN     CLOUDY    59  50  72 NW7       30.73R
BERTHOUD PASS  CLOUDY    46  34  61 NW9G18    30.75S
COTTONWOOD PAS FAIR      73  41  31 SW13G23   30.54F
GUNNISON       FAIR      74  53  48 VRB7      30.39F
KREMMLING      CLOUDY    72  63  73 S3        30.40F
LEADVILLE      CLOUDY    64  46  52 VRB3      30.50S
SALIDA         PTSUNNY   84  43  23 W10G17    30.41F
SUNLIGHT       CLOUDY    54  54 100 SW7       30.67S
WILKERSON PASS FAIR      66  43  42 SW5       30.69S
$$

COZ069>075-262100-
...SAN LUIS VALLEY/SANGRE DE CRISTO MOUNTAINS...

CITY           SKY/WX    TMP DP  RH WIND       PRES   REMARKS
ALAMOSA        FAIR      80  52  37 VRB3      30.36F
DEL NORTE      FAIR      77  55  46 SE7       30.40F
LA VETA PASS   NOT AVBL
SAGUACHE         N/A    N/A N/A N/A MISG        N/A
$$

COZ035-036-038>040-262100-
...NORTHERN COLORADO FRONT RANGE...

CITY           SKY/WX    TMP DP  RH WIND       PRES   REMARKS
DENVER INTL AP PTSUNNY   78  58  49 N6        30.24F
DMNS CITY PARK   N/A     78  58  49 NE13      30.23F
AURORA         PTSUNNY   80  59  49 N10G17    30.25F
FRONT RANGE AP FAIR      81  59  47 N13G18    30.26S
ERIE MUNI ARPT FAIR      79  58  47 NW6       30.23F
BOULDER MUN AP CLOUDY    77  57  50 NE7       30.24S
CENTENNIAL     PTSUNNY   78  58  49 N7        30.26F
BROOMFIELD     CLOUDY    75  59  57 CALM      30.27F
FORT COLLINS   CLOUDY    76  60  57 N13       30.24S
LONGMONT       PTSUNNY   81  61  50 E5        30.25S
$$

COZ041-046-047-076>085-087-088-262100-
...PIKES PEAK/PALMER DIVIDE AND SOUTHERN FOOTHILLS...

CITY           SKY/WX    TMP DP  RH WIND       PRES   REMARKS
COLO. SPRINGS  PTSUNNY   78  59  51 SW3       30.28S THUNDER
A. F. ACADEMY  MOSUNNY   80  58  47 N3        30.29F
SCHRIEVER AFB  FAIR      79  55  43 S5        30.28F
CHEYENNE MTN   FAIR      71  61  71 CALM      30.29F
ELLICOTT       PTSUNNY  N/A N/A N/A N10G16    30.26S
FALCON           N/A     77  54  45 CALM      30.34S
FORT CARSON    DRIZZLE   75  60  59 NW12      30.24F
LIMON          FAIR      81  62  52 N15G21    30.23F
MONUMENT HILL  FAIR      73  55  53 N8        30.36F
CANON CITY     SUNNY     88  63  42 SE9       30.19F
WALSENBURG     FAIR      86  57  37 N7        30.24S
TRINIDAD       FAIR      90  51  26 VRB3      30.20F
$$

COZ042>045-048>051-090-091-262100-
...NORTHEAST COLORADO...

CITY           SKY/WX    TMP DP  RH WIND       PRES   REMARKS
GREELEY ARPT   FAIR      80  60  50 NE7       30.22S
AKRON          CLOUDY    82  59  45 N17       30.19S
BURLINGTON     FAIR      84  65  52 N16G25    30.14F
WRAY           NOT AVBL
YUMA           CLOUDY    81  54  39 N16       30.15S
STERLING       CLOUDY    82  59  44 NE12      30.15S
HOLYOKE        FAIR      84  63  48 NE10G17   30.14S
FORT MORGAN    CLOUDY    82  55  38 N10       30.20S
$$

COZ086-089-092>099-262100-
...SOUTHEAST COLORADO...

CITY           SKY/WX    TMP DP  RH WIND       PRES   REMARKS
PUEBLO         FAIR      92  58  31 N8G20     30.13F
LA JUNTA       FAIR      94  59  31 NE10      30.11F
LAMAR          FAIR      92  61  35 VRB3      30.06F
SPRINGFIELD      N/A     89  59  36 N10       30.12F
$$




USA.gov is the U.S. government's official web portal to all federal, state and local government web resources and services.